Buffalo, MN

9:26 PM CST on December 11, 2019 (GMT -0600)
Buffalo

Weather History for KCFE - October, 2019

Change the Weather History Date:

Friday, October 18, 2019

  Actual Average (WUND) Record (WUND)
Temperature  
Mean Temperature 56 °F -  
Max Temperature 68 °F - - (-1)
Min Temperature 45 °F - - (-1)
Degree Days  
Heating Degree Days 8    
Growing Degree Days 6 (Base 50)    
Moisture  
Dew Point 40 °F    
Average Humidity 56    
Maximum Humidity 75    
Minimum Humidity 34    
Precipitation  
Precipitation 0.00 in - - ()
Sea Level Pressure  
Sea Level Pressure 29.64 in    
Wind  
Wind Speed - (North)    
Max Wind Speed -    
Max Gust Speed -    
Visibility 10 miles    
Events      
Averages and records for this station are not official NWS values.
T = Trace of Precipitation, MM = Missing Value Source: NWS Daily Summary

Daily Weather History Graph

Daily Weather History Graph

Search for Another Location

Airport or City:

Astronomy

Oct. 18, 2019 Rise Set
Actual Time 7:34 AM CDT 6:25 PM CDT
Civil Twilight 7:05 AM CDT 6:55 PM CDT
Nautical Twilight 6:30 AM CDT 7:29 PM CDT
Astronomical Twilight 5:56 AM CDT 8:03 PM CDT
Moon 9:31 PM CDT (10/18) 12:18 PM CDT (10/18)
Length of Visible Light 11h 50m
Length of Day
10h 50m
Waning Gibbous, 78% of the Moon is Illuminated
Oct 18
Waning Gibbous
Oct 21
Last Quarter
Oct 27
New
Nov 4
First Quarter
Nov 12
Full

Hourly Weather History & Observations

Time (CDT) Temp. Dew Point Humidity Pressure Visibility Wind Dir Wind Speed Gust Speed Precip Events Conditions
12:35 AM 47.3 °F 36.1 °F 65% 29.86 in 10.0 mi North - - N/A   Clear
12:55 AM 47.8 °F 36.5 °F 65% 29.85 in 10.0 mi North - - N/A   Clear
1:15 AM 47.8 °F 36.5 °F 65% 29.85 in 10.0 mi North - - N/A   Clear
1:35 AM 48.2 °F 36.5 °F 64% 29.84 in 10.0 mi North - - N/A   Clear
1:36 AM 48.2 °F 36.5 °F 64% 29.84 in 10.0 mi North - - N/A   Clear
1:55 AM 47.7 °F 37.0 °F 67% 29.84 in 10.0 mi North - - N/A   Clear
2:15 AM 47.8 °F 37.4 °F 67% 29.84 in 10.0 mi North - - N/A   Clear
2:35 AM 47.3 °F 37.0 °F 68% 29.82 in 10.0 mi North - - N/A   Clear
2:55 AM 46.6 °F 37.0 °F 69% 29.81 in 10.0 mi North - - N/A   Clear
2:56 AM 46.6 °F 37.0 °F 69% 29.81 in 10.0 mi North - - N/A   Clear
3:15 AM 46.4 °F 37.0 °F 70% 29.81 in 10.0 mi North - - N/A   Clear
3:35 AM 46.4 °F 37.4 °F 71% 29.80 in 10.0 mi North - - N/A   Clear
3:55 AM 46.4 °F 37.4 °F 71% 29.80 in 10.0 mi North - - N/A   Clear
4:15 AM 46.2 °F 37.6 °F 72% 29.79 in 10.0 mi North - - N/A   Clear
4:55 AM 45.5 °F 37.4 °F 73% 29.78 in 10.0 mi North - - N/A   Clear
5:35 AM 45.5 °F 37.8 °F 74% 29.76 in 10.0 mi North - - N/A   Clear
5:55 AM 45.9 °F 38.3 °F 75% 29.74 in 10.0 mi North - - N/A   Clear
5:56 AM 45.9 °F 38.3 °F 75% 29.74 in 10.0 mi North - - N/A   Clear
6:15 AM 46.4 °F 38.3 °F 73% 29.74 in 10.0 mi North - - N/A   Clear
6:35 AM 46.4 °F 38.3 °F 73% 29.74 in 10.0 mi North - - N/A   Clear
6:55 AM 46.2 °F 38.3 °F 74% 29.73 in 10.0 mi North - - N/A   Clear
7:15 AM 46.4 °F 38.3 °F 73% 29.73 in 10.0 mi North - - N/A   Clear
7:16 AM 46.2 °F 38.3 °F 74% 29.73 in 10.0 mi North - - N/A   Clear
7:35 AM 46.0 °F 38.1 °F 74% 29.72 in 10.0 mi North - - N/A   Clear
7:55 AM 46.4 °F 38.3 °F 73% 29.72 in 10.0 mi North - - N/A   Clear
7:56 AM 46.4 °F 38.3 °F 73% 29.72 in 10.0 mi North - - N/A   Clear
8:15 AM 46.4 °F 38.3 °F 73% 29.71 in 10.0 mi North - - N/A   Clear
8:35 AM 46.4 °F 38.3 °F 73% 29.71 in 10.0 mi North - - N/A   Clear
8:36 AM 46.4 °F 38.3 °F 73% 29.71 in 10.0 mi North - - N/A   Clear
8:55 AM 47.3 °F 38.5 °F 71% 29.70 in 10.0 mi North - - N/A   Clear
9:15 AM 47.8 °F 39.0 °F 71% 29.70 in 10.0 mi North - - N/A   Clear
9:16 AM 47.8 °F 39.0 °F 71% 29.70 in 10.0 mi North - - N/A   Clear
9:35 AM 48.7 °F 39.2 °F 70% 29.69 in 10.0 mi North - - N/A   Clear
9:55 AM 49.8 °F 39.4 °F 67% 29.70 in 10.0 mi North - - N/A   Clear
9:56 AM 49.8 °F 39.4 °F 67% 29.69 in 10.0 mi North - - N/A   Clear
10:15 AM 51.3 °F 39.9 °F 65% 29.68 in 10.0 mi North - - N/A   Clear
10:16 AM 51.4 °F 40.1 °F 65% 29.68 in 10.0 mi North - - N/A   Clear
10:35 AM 51.8 °F 40.3 °F 65% 29.67 in 10.0 mi North - - N/A   Clear
10:55 AM 53.2 °F 40.8 °F 63% 29.67 in 10.0 mi North - - N/A   Clear
10:56 AM 53.2 °F 41.0 °F 63% 29.67 in 10.0 mi North - - N/A   Clear
11:15 AM 54.3 °F 40.6 °F 60% 29.66 in 10.0 mi North - - N/A   Clear
11:35 AM 55.4 °F 41.2 °F 59% 29.66 in 10.0 mi North - - N/A   Clear
11:55 AM 56.8 °F 41.7 °F 57% 29.65 in 10.0 mi North - - N/A   Clear
11:56 AM 57.0 °F 41.7 °F 57% 29.65 in 10.0 mi North - - N/A   Clear
12:15 PM 58.5 °F 41.5 °F 53% 29.64 in 10.0 mi North - - N/A   Clear
12:35 PM 59.9 °F 41.7 °F 51% 29.62 in 10.0 mi North - - N/A   Clear
12:36 PM 60.1 °F 41.7 °F 51% 29.62 in 10.0 mi North - - N/A   Clear
12:55 PM 61.0 °F 41.9 °F 49% 29.61 in 10.0 mi North - - N/A   Clear
1:15 PM 61.7 °F 41.7 °F 48% 29.60 in 10.0 mi North - - N/A   Clear
1:35 PM 63.0 °F 41.2 °F 45% 29.59 in 10.0 mi North - - N/A   Clear
1:55 PM 63.9 °F 41.5 °F 44% 29.58 in 10.0 mi North - - N/A   Clear
1:56 PM 63.9 °F 41.5 °F 44% 29.58 in 10.0 mi North - - N/A   Clear
2:15 PM 64.2 °F 41.4 °F 43% 29.57 in 10.0 mi North - - N/A   Clear
2:35 PM 65.1 °F 41.9 °F 43% 29.56 in 10.0 mi North - - N/A   Clear
3:15 PM 66.4 °F 40.3 °F 38% 29.52 in 10.0 mi North - - N/A   Clear
3:35 PM 67.3 °F 39.7 °F 36% 29.51 in 10.0 mi North - - N/A   Clear
3:55 PM 67.6 °F 39.2 °F 35% 29.51 in 10.0 mi North - - N/A   Clear
4:15 PM 68.2 °F 39.2 °F 35% 29.49 in 10.0 mi North - - N/A   Clear
4:16 PM 68.2 °F 39.2 °F 35% 29.49 in 10.0 mi North - - N/A   Clear
4:35 PM 68.2 °F 38.8 °F 34% 29.49 in 10.0 mi North - - N/A   Clear
4:55 PM 68.2 °F 39.2 °F 35% 29.51 in 10.0 mi North - - N/A   Clear
5:15 PM 68.0 °F 39.2 °F 35% 29.52 in 10.0 mi North - - N/A   Clear
5:35 PM 66.9 °F 39.9 °F 37% 29.53 in 10.0 mi North - - N/A   Clear
5:55 PM 66.4 °F 40.3 °F 38% 29.52 in 10.0 mi North - - N/A   Mostly Cloudy
6:15 PM 65.5 °F 41.0 °F 41% 29.52 in 10.0 mi North - - N/A   Overcast
6:16 PM 65.5 °F 41.0 °F 41% 29.52 in 10.0 mi North - - N/A   Overcast
6:35 PM 65.5 °F 41.7 °F 42% 29.52 in 10.0 mi North - - N/A   Overcast
6:55 PM 65.5 °F 41.7 °F 42% 29.52 in 10.0 mi North - - N/A   Overcast
7:15 PM 65.5 °F 41.2 °F 41% 29.52 in 10.0 mi North - - N/A   Overcast
7:35 PM 65.5 °F 41.9 °F 42% 29.52 in 10.0 mi North - - N/A   Overcast
7:55 PM 64.8 °F 42.3 °F 44% 29.53 in 10.0 mi North - - N/A   Overcast
7:56 PM 64.8 °F 42.3 °F 44% 29.53 in 10.0 mi North - - N/A   Overcast
8:16 PM 64.4 °F 42.3 °F 44% 29.53 in 10.0 mi North - - N/A   Overcast
8:35 PM 64.4 °F 42.1 °F 44% 29.53 in 10.0 mi North - - N/A   Overcast
8:55 PM 64.4 °F 41.7 °F 44% 29.53 in 10.0 mi North - - N/A   Overcast
9:15 PM 63.7 °F 41.5 °F 44% 29.53 in 10.0 mi North - - N/A   Overcast
9:35 PM 63.5 °F 41.9 °F 45% 29.54 in 10.0 mi North - - N/A   Overcast
9:36 PM 63.5 °F 41.9 °F 45% 29.54 in 10.0 mi North - - N/A   Overcast
10:15 PM 62.1 °F 42.1 °F 48% 29.54 in 10.0 mi North - - N/A   Clear
10:35 PM 62.1 °F 41.7 °F 47% 29.54 in 10.0 mi North - - N/A   Clear
10:36 PM 62.1 °F 41.7 °F 47% 29.54 in 10.0 mi North - - N/A   Clear
10:55 PM 62.1 °F 42.3 °F 48% 29.54 in 10.0 mi North - - N/A   Clear
11:15 PM 61.2 °F 42.3 °F 50% 29.54 in 10.0 mi North - - N/A   Clear
11:35 PM 60.3 °F 42.3 °F 51% 29.55 in 10.0 mi North - - N/A   Clear
11:36 PM 60.3 °F 42.3 °F 51% 29.55 in 10.0 mi North - - N/A   Clear
11:55 PM 59.7 °F 42.6 °F 53% 29.55 in 10.0 mi North - - N/A   Clear
11:56 PM 59.7 °F 42.6 °F 53% 29.55 in 10.0 mi North - - N/A   Clear